When you browse on this site, cookies collect data to enhance your experience and personalize the content and advertising you see.
Visit our Privacy Policy to learn more. By continuing to use the site, you agree to this use of cookies and data.
  • In Portugal
  • List of Countries
  • For 7 days
  • Water Temperature
  • Satellite Maps
  • Weather Map
  • Weather Widgets
  • user-avatar
    Login

    Hourly Weather Niebylec

    Today, 15 December, Saturday

    Time Temperature Precipitation Wind Pressure Humidity
    00:00 -4°C° 0 mm 3 mps 744 mmHg 90%
    01:00 -4°C° 0 mm 3 mps 744 mmHg 86%
    02:00 -4°C° 0 mm 3 mps 744 mmHg 85%
    03:00 -5°C° 0 mm 4 mps 744 mmHg 83%
    04:00 -5°C° 0 mm 4 mps 744 mmHg 82%
    05:00 -5°C° 0 mm 4 mps 744 mmHg 83%
    06:00 -5°C° 0 mm 4 mps 743 mmHg 83%
    07:00 -5°C° 0 mm 4 mps 744 mmHg 85%
    08:00 -5°C° 0 mm 5 mps 744 mmHg 82%
    09:00 -5°C° 0 mm 5 mps 744 mmHg 79%
    10:00 -4°C° 0 mm 6 mps 744 mmHg 76%
    11:00 -4°C° 0 mm 6 mps 744 mmHg 75%
    12:00 -4°C° 0 mm 6 mps 743 mmHg 74%
    13:00 -4°C° 0 mm 6 mps 743 mmHg 71%
    14:00 -4°C° 0.1 mm 6 mps 743 mmHg 74%
    15:00 -5°C° 0.1 mm 6 mps 743 mmHg 77%
    16:00 -5°C° 0.1 mm 6 mps 743 mmHg 80%
    17:00 -5°C° 0.5 mm 6 mps 742 mmHg 83%
    18:00 -5°C° 0.5 mm 6 mps 742 mmHg 85%
    19:00 -5°C° 0.5 mm 6 mps 742 mmHg 88%
    20:00 -5°C° 0.4 mm 6 mps 742 mmHg 88%
    21:00 -5°C° 0.4 mm 5 mps 741 mmHg 88%
    22:00 -5°C° 0.4 mm 5 mps 741 mmHg 88%
    23:00 -5°C° 0.1 mm 5 mps 741 mmHg 88%

    Tomorrow, 16 December, Sunday

    Time Temperature Precipitation Wind Pressure Humidity
    00:00 -4°C° 0.1 mm 4 mps 740 mmHg 88%
    01:00 -4°C° 0.1 mm 4 mps 740 mmHg 88%
    02:00 -4°C° 0.2 mm 4 mps 740 mmHg 89%
    03:00 -4°C° 0.2 mm 3 mps 739 mmHg 90%
    04:00 -4°C° 0.2 mm 3 mps 739 mmHg 90%
    05:00 -4°C° 0.2 mm 3 mps 739 mmHg 91%
    06:00 -4°C° 0.2 mm 3 mps 739 mmHg 91%
    07:00 -3°C° 0.2 mm 2 mps 739 mmHg 92%
    08:00 -2°C° 0.2 mm 2 mps 739 mmHg 91%
    09:00 -2°C° 0.2 mm 2 mps 739 mmHg 91%
    10:00 -2°C° 0.2 mm 2 mps 739 mmHg 90%
    11:00 -1°C° 0.1 mm 2 mps 739 mmHg 90%
    12:00 +1°C° 0.1 mm 1 mps 739 mmHg 90%
    13:00 +1°C° 0.1 mm 1 mps 739 mmHg 90%
    14:00 +1°C° 0.1 mm 1 mps 739 mmHg 92%
    15:00 +1°C° 0.1 mm 1 mps 739 mmHg 93%
    16:00 0°C° 0.1 mm 1 mps 739 mmHg 95%
    17:00 0°C° 0.1 mm 1 mps 739 mmHg 95%
    18:00 0°C° 0.1 mm 1 mps 740 mmHg 95%
    19:00 -1°C° 0.1 mm 1 mps 740 mmHg 95%
    20:00 -1°C° 0 mm 1 mps 740 mmHg 95%
    21:00 -1°C° 0 mm 1 mps 740 mmHg 94%
    22:00 -1°C° 0 mm 1 mps 740 mmHg 94%
    23:00 -1°C° 0 mm 1 mps 740 mmHg 94%

    Day after tomorrow, 17 December, Monday

    Time Temperature Precipitation Wind Pressure Humidity
    00:00 -3°C° 0 mm 2 mps 740 mmHg 93%
    01:00 -3°C° 0 mm 2 mps 741 mmHg 93%
    02:00 -3°C° 0 mm 2 mps 740 mmHg 93%
    03:00 -4°C° 0 mm 2 mps 740 mmHg 93%
    04:00 -4°C° 0 mm 2 mps 740 mmHg 93%
    05:00 -4°C° 0 mm 2 mps 740 mmHg 93%
    06:00 -2°C° 0 mm 1 mps 741 mmHg 92%
    07:00 -2°C° 0 mm 1 mps 741 mmHg 92%
    08:00 -2°C° 0 mm 1 mps 741 mmHg 90%
    09:00 -1°C° 0 mm 1 mps 741 mmHg 88%
    10:00 -1°C° 0 mm 1 mps 741 mmHg 86%
    11:00 0°C° 0 mm 1 mps 741 mmHg 85%
    12:00 0°C° 0 mm 1 mps 742 mmHg 83%
    13:00 +1°C° 0 mm 1 mps 742 mmHg 82%
    14:00 0°C° 0 mm 1 mps 742 mmHg 84%
    15:00 -1°C° 0 mm 1 mps 742 mmHg 86%
    16:00 -2°C° 0 mm 1 mps 743 mmHg 89%
    17:00 -2°C° 0 mm 1 mps 743 mmHg 88%
    18:00 -2°C° 0 mm 1 mps 744 mmHg 88%
    19:00 -2°C° 0 mm 1 mps 744 mmHg 87%
    20:00 -2°C° 0 mm 1 mps 744 mmHg 87%
    21:00 -2°C° 0 mm 1 mps 745 mmHg 88%
    22:00 -2°C° 0 mm 1 mps 745 mmHg 88%
    23:00 -2°C° 0 mm 1 mps 745 mmHg 89%

    18 December, Tuesday

    Time Temperature Precipitation Wind Pressure Humidity
    00:00 -2°C° 0 mm 1 mps 745 mmHg 90%
    01:00 -2°C° 0 mm 1 mps 745 mmHg 91%
    02:00 -2°C° 0 mm 1 mps 746 mmHg 92%
    03:00 -2°C° 0 mm 1 mps 746 mmHg 93%
    04:00 -2°C° 0 mm 1 mps 746 mmHg 94%
    05:00 -2°C° 0 mm 1 mps 746 mmHg 94%
    06:00 -1°C° 0 mm 1 mps 747 mmHg 94%
    07:00 -2°C° 0 mm 0 mps 747 mmHg 94%
    08:00 0°C° 0 mm 1 mps 747 mmHg 93%
    09:00 0°C° 0 mm 1 mps 747 mmHg 92%
    10:00 0°C° 0 mm 1 mps 748 mmHg 92%
    11:00 +1°C° 0 mm 1 mps 747 mmHg 91%
    12:00 +1°C° 0 mm 1 mps 747 mmHg 91%
    13:00 +1°C° 0 mm 1 mps 747 mmHg 91%
    14:00 +1°C° 0 mm 1 mps 747 mmHg 91%
    15:00 0°C° 0 mm 1 mps 747 mmHg 92%
    16:00 0°C° 0 mm 1 mps 747 mmHg 93%
    17:00 0°C° 0 mm 1 mps 747 mmHg 93%
    18:00 0°C° 0 mm 1 mps 747 mmHg 93%
    19:00 -1°C° 0 mm 1 mps 747 mmHg 94%
    20:00 -1°C° 0 mm 1 mps 747 mmHg 94%
    21:00 -1°C° 0 mm 1 mps 747 mmHg 94%
    22:00 -1°C° 0 mm 1 mps 747 mmHg 94%
    23:00 -1°C° 0 mm 1 mps 747 mmHg 95%

    19 December, Wednesday

    Time Temperature Precipitation Wind Pressure Humidity
    00:00 -1°C° 0 mm 1 mps 747 mmHg 95%
    01:00 -2°C° 0 mm 1 mps 747 mmHg 95%
    02:00 -2°C° 0 mm 1 mps 747 mmHg 96%
    03:00 -2°C° 0 mm 1 mps 747 mmHg 96%
    04:00 -2°C° 0 mm 1 mps 747 mmHg 97%
    05:00 -4°C° 0 mm 2 mps 747 mmHg 96%
    06:00 -4°C° 0 mm 2 mps 747 mmHg 96%
    07:00 -4°C° 0 mm 2 mps 747 mmHg 95%
    08:00 -4°C° 0 mm 2 mps 747 mmHg 93%
    09:00 -3°C° 0 mm 2 mps 747 mmHg 91%
    10:00 -3°C° 0 mm 2 mps 747 mmHg 89%
    11:00 -4°C° 0 mm 3 mps 747 mmHg 88%
    12:00 -2°C° 0 mm 3 mps 747 mmHg 87%
    13:00 -2°C° 0 mm 3 mps 746 mmHg 86%
    14:00 -2°C° 0 mm 3 mps 746 mmHg 88%
    15:00 -4°C° 0 mm 3 mps 747 mmHg 89%
    16:00 -4°C° 0 mm 3 mps 747 mmHg 91%
    17:00 -4°C° 0 mm 3 mps 747 mmHg 91%
    18:00 -4°C° 0 mm 2 mps 747 mmHg 91%
    19:00 -4°C° 0 mm 2 mps 747 mmHg 92%
    20:00 -4°C° 0 mm 2 mps 747 mmHg 92%
    21:00 -5°C° 0 mm 3 mps 746 mmHg 92%
    22:00 -5°C° 0 mm 3 mps 746 mmHg 92%
    23:00 -5°C° 0 mm 3 mps 746 mmHg 91%

    20 December, Thursday

    Time Temperature Precipitation Wind Pressure Humidity
    00:00 -5°C° 0 mm 3 mps 746 mmHg 91%
    01:00 -5°C° 0 mm 3 mps 746 mmHg 90%
    02:00 -5°C° 0 mm 3 mps 746 mmHg 90%
    03:00 -5°C° 0 mm 3 mps 746 mmHg 90%
    04:00 -5°C° 0 mm 3 mps 745 mmHg 90%
    05:00 -5°C° 0 mm 3 mps 745 mmHg 89%
    06:00 -5°C° 0 mm 3 mps 745 mmHg 89%
    07:00 -5°C° 0 mm 3 mps 745 mmHg 89%
    08:00 -4°C° 0 mm 4 mps 745 mmHg 88%
    09:00 -4°C° 0 mm 4 mps 745 mmHg 86%
    10:00 -3°C° 0 mm 4 mps 745 mmHg 84%
    11:00 -2°C° 0 mm 4 mps 745 mmHg 83%
    12:00 -2°C° 0 mm 4 mps 745 mmHg 82%
    13:00 -1°C° 0 mm 4 mps 744 mmHg 82%
    14:00 -1°C° 0 mm 3 mps 744 mmHg 83%
    15:00 -2°C° 0 mm 3 mps 744 mmHg 85%
    16:00 -4°C° 0 mm 3 mps 744 mmHg 86%
    17:00 -4°C° 0 mm 3 mps 744 mmHg 86%
    18:00 -4°C° 0 mm 3 mps 744 mmHg 86%
    19:00 -4°C° 0 mm 3 mps 744 mmHg 86%
    20:00 -3°C° 0 mm 2 mps 745 mmHg 85%
    21:00 -3°C° 0 mm 2 mps 745 mmHg 84%
    22:00 -3°C° 0 mm 2 mps 745 mmHg 83%
    23:00 -3°C° 0 mm 2 mps 745 mmHg 83%
    Show more